DW8293 Weather Reports


Display with metric or nautical units.
time (UTC)temp
F
wind
direction
speed
MPH
gust
MPH
rain 1hr
in
rain 24hr
in
rain mn
in
humidity
%
barometer
mb
20260903174505 62 238 2.0 4.0 0.00 0.00 0.00 53 999.4
20260903173624 62 240 2.0 4.0 0.00 0.00 0.00 52 999.4
20260903172724 63 244 3.0 6.0 0.00 0.00 0.00 51 999.3
20260903171824 63 234 2.0 6.0 0.00 0.00 0.00 50 999.4
20260903170904 64 251 2.0 8.0 0.00 0.00 0.00 49 999.5
20260903170005 64 236 2.0 7.0 0.00 0.00 0.00 48 999.5
20260903165403 64 239 4.0 6.0 0.00 0.00 0.00 48 999.2
20260903164504 65 248 4.0 7.0 0.00 0.00 0.00 47 999.5
20260903163603 66 248 4.0 7.0 0.00 0.00 0.00 45 999.3
20260903162724 66 258 3.0 7.0 0.00 0.00 0.00 44 999.4
20260903161803 66 252 3.0 9.0 0.00 0.00 0.00 45 999.5
20260903160905 65 252 4.0 9.0 0.00 0.00 0.00 46 999.3
20260903160003 66 233 5.0 11.0 0.00 0.00 0.00 45 999.5
20260903155405 66 250 6.0 11.0 0.00 0.00 0.00 45 999.5
20260903154503 66 246 5.0 11.0 0.00 0.00 0.00 46 999.7
20260903153603 66 234 4.0 13.0 0.00 0.00 0.00 45 999.7
20260903152726 64 248 7.0 14.0 0.00 0.00 0.00 47 999.9
20260903151803 66 242 9.0 16.0 0.00 0.00 0.00 45 1000.0
20260903150903 67 259 5.0 15.0 0.00 0.00 0.00 43 999.7
20260903150003 67 252 7.0 15.0 0.00 0.00 0.00 40 999.8
20260903145426 68 250 4.0 15.0 0.00 0.00 0.00 41 1000.0
20260903144503 67 240 10.0 14.0 0.00 0.00 0.00 41 1000.0
20260903143604 67 256 8.0 14.0 0.00 0.00 0.00 40 999.9
20260903142724 68 288 4.0 13.0 0.00 0.00 0.00 41 999.9
20260903141803 67 253 9.0 13.0 0.00 0.00 0.00 42 999.7
20260903140903 67 251 4.0 14.0 0.00 0.00 0.00 40 999.6
20260903140003 67 279 4.0 14.0 0.00 0.00 0.00 42 999.9
20260903135403 65 282 8.0 14.0 0.00 0.00 0.00 44 999.9
20260903134503 65 277 3.0 9.0 0.00 0.00 0.00 45 1000.0
20260903133603 65 291 6.0 15.0 0.00 0.00 0.00 45 1000.1
20260903132706 66 293 12.0 15.0 0.00 0.00 0.00 43 999.8
20260903131803 67 284 4.0 13.0 0.00 0.00 0.00 42 999.9
20260903130903 67 285 5.0 11.0 0.00 0.00 0.00 44 1000.0
20260903130024 65 296 4.0 11.0 0.00 0.00 0.00 48 1000.0
20260903125403 65 293 4.0 9.0 0.00 0.00 0.00 48 1000.0
20260903124524 65 299 4.0 11.0 0.00 0.00 0.00 48 1000.0
20260903123604 65 292 4.0 11.0 0.00 0.00 0.00 48 1000.0
20260903122703 65 287 4.0 11.0 0.00 0.00 0.00 49 1000.1
20260903121803 63 291 7.0 11.0 0.00 0.00 0.00 50 1000.1
20260903120904 64 292 4.0 13.0 0.00 0.00 0.00 49 1000.4
20260903120003 63 283 7.0 14.0 0.00 0.00 0.00 50 1000.2
20260903115403 64 284 6.0 11.0 0.00 0.00 0.00 48 1000.2
20260903114525 64 236 8.0 11.0 0.00 0.00 0.00 48 1000.2
20260903113603 64 288 6.0 13.0 0.00 0.00 0.00 49 1000.3
20260903112703 65 270 3.0 11.0 0.00 0.00 0.00 49 1000.3
20260903111803 64 280 8.0 13.0 0.00 0.00 0.00 49 1000.4
20260903110903 64 288 7.0 15.0 0.00 0.00 0.00 51 1000.4
20260903110003 64 277 6.0 13.0 0.00 0.00 0.00 52 1000.6
20260903105403 64 266 4.0 13.0 0.00 0.00 0.00 52 1000.7
20260903104503 63 265 5.0 13.0 0.00 0.00 0.00 55 1000.6
20260903103603 63 272 4.0 9.0 0.00 0.00 0.00 55 1000.6
20260903102704 63 292 5.0 15.0 0.00 0.00 0.00 55 1000.9
20260903101803 63 258 9.0 15.0 0.00 0.00 0.00 54 1000.7
20260903100905 63 253 3.0 13.0 0.00 0.00 0.00 53 1000.6
20260903100004 62 260 7.0 13.0 0.00 0.00 0.00 55 1000.7
20260903095403 62 265 8.0 14.0 0.00 0.00 0.00 55 1000.7
20260903094504 61 236 5.0 11.0 0.00 0.00 0.00 57 1000.7
20260903093604 61 275 8.0 13.0 0.00 0.00 0.00 57 1000.6
20260903092704 61 301 3.0 11.0 0.00 0.00 0.00 58 1000.8
20260903091805 60 277 5.0 11.0 0.00 0.00 0.00 58 1001.0
20260903090903 60 251 8.0 11.0 0.00 0.00 0.00 59 1000.8
20260903090003 59 244 6.0 13.0 0.00 0.00 0.00 60 1000.8
20260903085403 59 243 10.0 13.0 0.00 0.00 0.00 60 1000.8
20260903084506 59 260 5.0 9.0 0.00 0.00 0.00 61 1000.9
20260903083603 59 257 4.0 11.0 0.00 0.00 0.00 61 1000.9
20260903082724 59 264 4.0 11.0 0.00 0.00 0.00 62 1000.7
20260903081803 58 246 7.0 11.0 0.00 0.00 0.00 62 1000.7
20260903080905 58 243 4.0 11.0 0.00 0.00 0.00 64 1000.7
20260903080004 58 256 4.0 9.0 0.00 0.00 0.00 66 1000.8
20260903075405 58 244 5.0 11.0 0.00 0.00 0.00 66 1000.7
20260903074503 57 249 6.0 13.0 0.00 0.00 0.00 68 1000.8
20260903073604 56 257 4.0 13.0 0.00 0.00 0.00 70 1000.8
20260903072703 56 246 5.0 13.0 0.00 0.00 0.00 71 1000.6
20260903071805 56 260 6.0 11.0 0.00 0.00 0.00 73 1000.8
20260903070903 55 270 5.0 13.0 0.00 0.00 0.00 75 1001.0
20260903070004 55 256 2.0 13.0 0.00 0.00 0.00 77 1000.8
20260903065405 55 251 8.0 11.0 0.00 0.00 0.00 76 1001.0
20260903064503 54 270 8.0 11.0 0.00 0.00 0.00 77 1000.7
20260903063603 54 245 5.0 14.0 0.00 0.00 0.00 78 1000.6
20260903062703 54 253 6.0 9.0 0.00 0.00 0.00 81 1000.6
20260903061803 54 239 4.0 8.0 0.00 0.00 0.00 84 1000.8
20260903060905 53 245 5.0 9.0 0.00 0.00 0.00 84 1000.6
20260903060025 53 246 6.0 9.0 0.00 0.00 0.00 86 1001.0
20260903055403 53 245 4.0 11.0 0.00 0.00 0.00 88 1000.8
20260903054529 52 247 7.0 9.0 0.00 0.00 0.00 89 1000.8
20260903053603 52 251 5.0 9.0 0.00 0.00 0.00 90 1000.8
20260903052703 52 249 4.0 7.0 0.00 0.00 0.00 91 1000.8
20260903051803 51 250 4.0 11.0 0.00 0.00 0.00 92 1000.7
20260903050903 51 234 5.0 11.0 0.00 0.00 0.00 92 1001.0
20260903050025 51 246 4.0 11.0 0.00 0.00 0.00 93 1000.9
20260903045427 51 239 8.0 11.0 0.00 0.00 0.00 94 1000.9
20260903044505 50 250 5.0 8.0 0.00 0.00 0.00 95 1000.9
20260903043603 50 239 2.0 7.0 0.00 0.00 0.00 95 1000.7
20260903042703 50 240 4.0 7.0 0.00 0.00 0.00 96 1000.8
20260903041803 50 239 3.0 4.0 0.00 0.00 0.00 96 1001.0
20260903040905 49 242 2.0 4.0 0.00 0.00 0.00 97 1000.7
20260903040005 49 247 2.0 4.0 0.00 0.00 0.00 96 1000.7
20260903035404 50 245 1.0 4.0 0.00 0.00 0.00 96 1000.8
20260903034503 50 237 2.0 4.0 0.00 0.00 0.00 96 1000.7
20260903033624 50 224 2.0 4.0 0.00 0.00 0.00 95 1000.6
20260903032703 51 230 4.0 8.0 0.00 0.00 0.00 94 1000.7
20260903031826 51 231 5.0 7.0 0.00 0.00 0.00 94 1000.6
20260903030903 51 227 2.0 4.0 0.00 0.00 0.00 95 1000.7
20260903030003 50 231 2.0 4.0 0.00 0.00 0.00 95 1000.8
20260903025403 51 226 2.0 4.0 0.00 0.00 0.00 95 1000.8
20260903024503 51 225 2.0 4.0 0.00 0.00 0.00 94 1000.8
20260903023624 51 230 2.0 6.0 0.00 0.00 0.00 93 1000.9
20260903022705 52 245 2.0 4.0 0.00 0.00 0.00 93 1001.1
20260903021806 52 244 1.0 4.0 0.00 0.00 0.00 92 1001.1
20260903020905 52 237 1.0 4.0 0.00 0.00 0.00 92 1001.4
20260903020024 52 239 2.0 6.0 0.00 0.00 0.00 91 1001.3
20260903015403 52 248 3.0 7.0 0.00 0.00 0.00 90 1001.3
20260903014506 53 261 4.0 7.0 0.00 0.00 0.00 90 1001.2
20260903013605 53 255 4.0 11.0 0.00 0.00 0.00 90 1001.3
20260903012703 53 231 4.0 11.0 0.00 0.00 0.00 89 1001.3
20260903011803 53 246 6.0 11.0 0.00 0.00 0.00 89 1001.4
20260903010905 53 245 7.0 9.0 0.00 0.00 0.00 88 1001.3
20260903010005 53 244 6.0 9.0 0.00 0.00 0.00 88 1001.3
20260903005403 53 248 4.0 9.0 0.00 0.00 0.00 87 1001.2
20260903004505 53 241 5.0 9.0 0.00 0.00 0.00 87 1001.3
20260903003603 53 239 2.0 6.0 0.00 0.00 0.00 86 1001.5
20260903002724 54 233 3.0 8.0 0.00 0.00 0.00 86 1001.5
20260903001803 54 265 2.0 4.0 0.00 0.00 0.00 85 1001.4
20260903000903 54 252 3.0 4.0 0.00 0.00 0.00 85 1001.8
20260903000005 54 214 0.0 4.0 0.00 0.00 0.00 84 1001.4
20260902235403 54 230 2.0 4.0 0.00 0.00 0.00 83 1001.5
20260902234505 54 253 2.0 6.0 0.00 0.00 0.00 83 1001.6
20260902233626 55 249 4.0 7.0 0.00 0.00 0.00 81 1001.3
20260902232706 55 240 4.0 7.0 0.00 0.00 0.00 81 1001.3
20260902231805 55 242 2.0 11.0 0.00 0.00 0.00 80 1001.5
20260902230903 55 248 5.0 11.0 0.00 0.00 0.00 79 1001.4
20260902230003 56 258 6.0 11.0 0.00 0.00 0.00 78 1001.4
20260902225424 56 243 7.0 11.0 0.00 0.00 0.00 78 1001.5
20260902224526 56 237 4.0 13.0 0.00 0.00 0.00 77 1001.5
20260902223603 56 242 6.0 9.0 0.00 0.00 0.00 77 1001.5
20260902222724 56 230 2.0 15.0 0.00 0.00 0.00 77 1001.5
20260902221826 56 232 4.0 14.0 0.00 0.00 0.00 76 1001.8
20260902220903 56 244 4.0 14.0 0.00 0.00 0.00 75 1001.7
20260902220024 56 245 4.0 11.0 0.00 0.00 0.00 75 1001.7
20260902215426 56 225 4.0 11.0 0.00 0.00 0.00 75 1001.6
20260902214505 56 225 5.0 8.0 0.00 0.00 0.00 75 1001.9
20260902213603 56 238 2.0 11.0 0.00 0.00 0.00 74 1001.7
20260902212704 56 225 4.0 8.0 0.00 0.00 0.00 73 1001.8
20260902211803 56 218 5.0 8.0 0.00 0.00 0.00 73 1001.8
20260902210903 56 227 2.0 7.0 0.00 0.00 0.00 73 1001.8
20260902210003 57 242 3.0 9.0 0.00 0.00 0.00 72 1001.8
20260902205403 57 235 5.0 9.0 0.00 0.00 0.00 71 1001.8
20260902204505 57 242 5.0 9.0 0.00 0.00 0.00 71 1001.9
20260902203603 57 234 2.0 11.0 0.00 0.00 0.00 70 1001.7
20260902202705 57 230 5.0 8.0 0.00 0.00 0.00 69 1002.0
20260902201807 57 236 2.0 7.0 0.00 0.00 0.00 70 1001.9
20260902200924 57 234 3.0 7.0 0.00 0.00 0.00 68 1002.1
20260902200003 57 218 3.0 7.0 0.00 0.00 0.00 68 1001.9
20260902195403 58 227 3.0 6.0 0.00 0.00 0.00 67 1001.9
20260902194524 58 212 2.0 6.0 0.00 0.00 0.00 67 1001.7
20260902193603 58 214 2.0 6.0 0.00 0.00 0.00 66 1002.0
20260902192724 58 199 2.0 7.0 0.00 0.00 0.00 65 1001.8
20260902191803 59 203 2.0 6.0 0.00 0.00 0.00 64 1001.9
20260902190903 59 227 2.0 6.0 0.00 0.00 0.00 64 1001.7
20260902190005 59 214 2.0 4.0 0.00 0.00 0.00 63 1001.9
20260902185403 60 225 1.0 4.0 0.00 0.00 0.00 62 1002.0
20260902184503 60 212 2.0 4.0 0.00 0.00 0.00 61 1001.7
20260902183603 60 203 2.0 4.0 0.00 0.00 0.00 60 1001.5
20260902182703 61 210 2.0 6.0 0.00 0.00 0.00 59 1001.8
20260902181803 62 230 4.0 7.0 0.00 0.00 0.00 58 1001.6
20260902180905 62 229 2.0 4.0 0.00 0.00 0.00 58 1001.7
20260902180005 62 225 2.0 8.0 0.00 0.00 0.00 57 1001.6
20260902175403 62 229 2.0 8.0 0.00 0.00 0.00 56 1001.7